Regional Weather Roundup
Issued by NWS Sioux Falls, SD

Home | Current Version | Previous Version | Graphics & Text | Print | Product List | Glossary Off
Versions: 1 2 3 4 5 6 7 8 9 10 11 12 13 14 15 16 17 18 19 20 21 22 23 24 25 26 27 28 29 30 31 32 33 34 35 36 37 38 39 40 41 42 43 44 45 46 47 48 49 50

000
ASUS43 KFSD 030102
RWRFSD

WEATHER ROUNDUP FOR SE SOUTH DAKOTA/SW MINNESOTA/NW IOWA
NATIONAL WEATHER SERVICE SIOUX FALLS SD
700 PM CST MON MAR 02 2015

NOTE: "FAIR" INDICATES FEW OR NO CLOUDS BELOW 12,000 FEET WITH NO
SIGNIFICANT WEATHER AND OR OBSTRUCTIONS TO VISIBILITY.


SDZ038>040-050-052>070-030200-
SOUTHEAST SOUTH DAKOTA

CITY           SKY/WX    TMP DP  RH WIND       PRES   REMARKS
CHAMBERLAIN    NOT AVBL
HURON          CLOUDY    31  19  61 S23G30    29.89F WCI  18
MADISON        CLOUDY    27  23  86 SE15G21   29.96F WCI  15
MITCHELL       CLOUDY    35  19  52 MISG      29.93F
SIOUX FALLS    CLOUDY    30  20  66 SE18G30   30.00F WCI  18
WINNER         FAIR      39  14  36 S21       29.79F
YANKTON        CLOUDY    37  18  44 SE16      29.99F
$$

MNZ071-072-080-081-089-090-097-098-030200-
SOUTHWEST MINNESOTA

CITY           SKY/WX    TMP DP  RH WIND       PRES   REMARKS
FAIRMONT       CLOUDY    25  18  74 SE15      30.13F WCI  12
JACKSON        CLOUDY    27  19  74 SE13      30.10F WCI  16
LUVERNE        CLOUDY    30  21  69 S14       30.04F WCI  20
MARSHALL       CLOUDY    27  18  69 S16       30.06F WCI  14
MONTEVIDEO     CLOUDY    25  18  74 S14G23    30.07F WCI  13
PIPESTONE      CLOUDY    27  19  74 S14       30.01F WCI  15
REDWOOD FALLS  CLOUDY    25  19  78 SE17      30.09F WCI  12
TRACY          CLOUDY    27  20  76 S15G21    30.05F WCI  15
WINDOM         CLOUDY    25  19  80 SE12      30.09F WCI  14
WORTHINGTON    CLOUDY    25  18  74 SE13      30.08F WCI  13
$$

IAZ001>003-012>014-020>022-031-032-NEZ013-014-SDZ071-030200-
NORTHWEST IOWA

CITY           SKY/WX    TMP DP  RH WIND       PRES   REMARKS
DENISON        CLOUDY    30  21  69 SE14      30.08F WCI  20
ESTHERVILLE    CLOUDY    24  19  81 SE16      30.12F WCI  11
SIOUX CITY     CLOUDY    34  23  64 SE13      30.05F WCI  25
SPENCER        CLOUDY    27  19  72 SE17      30.10F WCI  14
$$

ABBREVIATIONS USED IN REMARKS
   TC - TEMPERATURE IN CELSIUS
  WCI - WIND CHILL INDEX
   HX - HEAT INDEX
  VSB - VISIBILITY



USA.gov is the U.S. government's official web portal to all federal, state and local government web resources and services.